DW8054 Weather Reports


Display with metric or nautical units.
time (UTC)temp
F
wind
direction
speed
MPH
gust
MPH
rain 1hr
in
rain 24hr
in
rain mn
in
humidity
%
barometer
mb
20260507070011 48 360 2.0 7.0 0.00 0.35 0.00 96 1004.2
20260507064506 48 360 1.0 7.0 0.00 0.35 0.00 97 1003.9
20260507063005 48 360 0.0 4.0 0.00 0.35 0.00 97 1003.7
20260507061603 48 360 2.0 5.0 0.00 0.35 0.00 97 1004.1
20260507060104 49 360 0.0 5.0 0.00 0.35 0.00 97 1003.8
20260507054615 49 360 0.0 5.0 0.00 0.35 0.00 97 1003.6
20260507053107 49 360 2.0 9.0 0.00 0.35 0.00 97 1003.7
20260507051558 49 360 2.0 5.0 0.00 0.35 0.00 97 1003.6
20260507050056 50 360 2.0 8.0 0.00 0.35 0.00 97 1003.6
20260507044556 50 360 1.0 8.0 0.01 0.35 0.00 97 1003.7
20260507043046 51 360 2.0 7.0 0.03 0.35 0.00 97 1003.5
20260507041557 52 360 0.0 6.0 0.03 0.35 0.00 97 1003.1
20260507040043 52 360 1.0 7.0 0.03 0.35 0.00 97 1003.3
20260507034539 53 360 1.0 7.0 0.03 0.34 0.14 97 1003.3
20260507033038 53 360 3.0 8.0 0.01 0.32 0.12 97 1003.3
20260507031537 54 360 2.0 12.0 0.02 0.32 0.12 98 1003.2
20260507030031 55 360 2.0 8.0 0.03 0.32 0.12 98 1002.8
20260507024533 57 360 3.0 9.0 0.02 0.31 0.11 98 1002.7
20260507023023 58 258 1.0 7.0 0.02 0.31 0.11 98 1002.7
20260507021530 58 239 3.0 8.0 0.01 0.30 0.10 98 1002.7
20260507020023 58 233 3.0 11.0 0.00 0.28 0.09 98 1002.7
20260507014523 58 231 4.0 9.0 0.00 0.28 0.09 98 1002.8
20260507013022 58 230 4.0 12.0 0.00 0.28 0.09 98 1002.7
20260507011523 59 224 4.0 9.0 0.00 0.28 0.09 98 1002.8
20260507010119 59 251 5.0 11.0 0.00 0.28 0.09 98 1002.7
20260507004518 59 246 6.0 17.0 0.00 0.28 0.09 98 1002.8
20260507003016 59 232 5.0 10.0 0.00 0.28 0.09 98 1002.8
20260507001516 59 223 5.0 12.0 0.00 0.28 0.09 98 1002.7
20260507000022 59 225 5.0 12.0 0.00 0.28 0.09 98 1002.6
20260506234514 59 193 5.0 14.0 0.00 0.28 0.09 98 1002.7
20260506233014 59 232 5.0 19.0 0.00 0.28 0.09 98 1002.8
20260506231516 59 227 6.0 12.0 0.00 0.28 0.09 98 1002.7
20260506230010 59 188 5.0 14.0 0.00 0.28 0.09 98 1002.7
20260506224509 59 201 5.0 11.0 0.00 0.28 0.09 98 1002.9
20260506223006 59 173 5.0 14.0 0.01 0.28 0.09 98 1003.0
20260506221506 59 182 6.0 17.0 0.01 0.28 0.09 98 1003.1
20260506220004 60 210 6.0 15.0 0.02 0.28 0.09 98 1003.1
20260506214601 60 206 3.0 8.0 0.03 0.28 0.09 98 1003.4
20260506213101 60 197 3.0 13.0 0.03 0.28 0.08 98 1003.4
20260506211557 60 204 6.0 10.0 0.05 0.28 0.08 98 1003.5
20260506210055 60 207 3.0 7.0 0.06 0.27 0.07 97 1003.7
20260506204553 60 142 3.0 8.0 0.06 0.26 0.06 98 1003.8
20260506203052 60 202 1.0 5.0 0.05 0.25 0.05 97 1003.9
20260506201550 61 186 1.0 4.0 0.03 0.23 0.03 97 1003.9
20260506200047 61 198 0.0 3.0 0.01 0.21 0.01 97 1003.7
20260506193006 61 216 1.0 6.0 0.13 0.28 0.28 96 1004.1
20260506191505 61 201 3.0 9.0 0.20 0.27 0.27 96 1004.4
20260506190005 61 220 1.0 7.0 0.19 0.20 0.20 95 1004.6
20260506184504 61 225 3.0 10.0 0.16 0.16 0.16 94 1004.5
20260506183003 62 257 5.0 11.0 0.14 0.14 0.14 93 1004.9
20260506181608 63 360 3.0 8.0 0.07 0.07 0.07 88 1004.8
20260506180059 66 198 2.0 8.0 0.01 0.01 0.01 78 1004.5
20260506174558 68 360 3.0 8.0 0.00 0.00 0.00 70 1004.1
20260506173126 69 215 5.0 14.0 0.00 0.00 0.00 67 1004.2
20260506171558 69 239 5.0 11.0 0.00 0.00 0.00 69 1004.2
20260506170106 69 219 5.0 11.0 0.00 0.00 0.00 69 1004.5
20260506164552 68 215 5.0 8.0 0.00 0.00 0.00 70 1004.8
20260506163055 68 247 4.0 13.0 0.00 0.00 0.00 71 1005.1
20260506161546 68 190 5.0 10.0 0.00 0.00 0.00 72 1005.5
20260506160044 67 217 4.0 15.0 0.00 0.00 0.00 73 1006.0
20260506154603 67 197 5.0 15.0 0.00 0.00 0.00 73 1006.2
20260506153039 67 221 6.0 10.0 0.00 0.00 0.00 74 1006.5
20260506151539 67 238 6.0 12.0 0.00 0.00 0.00 74 1006.2
20260506150039 66 215 4.0 9.0 0.00 0.00 0.00 75 1006.5
20260506144542 66 190 3.0 7.0 0.00 0.00 0.00 77 1006.3
20260506143034 65 211 5.0 10.0 0.00 0.00 0.00 78 1006.4
20260506141531 65 186 4.0 9.0 0.00 0.00 0.00 78 1006.2
20260506140033 64 360 3.0 6.0 0.00 0.00 0.00 80 1006.3
20260506134528 63 240 4.0 8.0 0.00 0.00 0.00 80 1006.6
20260506133034 63 218 2.0 7.0 0.00 0.00 0.00 81 1006.7
20260506131526 63 235 3.0 7.0 0.00 0.00 0.00 81 1006.7
20260506130025 63 223 4.0 8.0 0.00 0.00 0.00 81 1006.7
20260506124525 62 221 4.0 10.0 0.00 0.00 0.00 82 1006.6
20260506123025 62 193 4.0 10.0 0.00 0.00 0.00 81 1006.8
20260506121524 62 360 3.0 8.0 0.00 0.00 0.00 82 1006.7
20260506120024 61 244 4.0 9.0 0.00 0.00 0.00 83 1007.1
20260506114526 60 215 3.0 12.0 0.00 0.00 0.00 84 1007.1
20260506113023 60 231 2.0 7.0 0.00 0.00 0.00 85 1007.3
20260506111521 60 245 2.0 7.0 0.00 0.00 0.00 85 1007.5
20260506110021 59 360 3.0 10.0 0.00 0.00 0.00 85 1007.1
20260506104541 59 360 3.0 6.0 0.00 0.00 0.00 85 1007.2
20260506103019 58 227 3.0 7.0 0.00 0.00 0.00 84 1007.3
20260506101517 59 212 4.0 8.0 0.00 0.00 0.00 83 1007.0
20260506100018 58 360 3.0 7.0 0.00 0.00 0.00 83 1007.2
20260506094516 58 215 3.0 7.0 0.00 0.00 0.00 82 1007.0
20260506093014 58 196 3.0 7.0 0.00 0.00 0.00 81 1007.0
20260506091513 58 217 2.0 5.0 0.00 0.00 0.00 80 1007.0
20260506090011 58 360 1.0 6.0 0.00 0.00 0.00 80 1006.9
20260506084510 59 360 2.0 5.0 0.00 0.00 0.00 79 1007.1
20260506083016 59 232 3.0 8.0 0.00 0.00 0.00 77 1006.9
20260506081509 59 237 2.0 6.0 0.00 0.00 0.00 77 1006.9
20260506073004 60 239 1.0 5.0 0.00 0.00 0.00 76 1006.9
20260506071626 60 206 2.0 5.0 0.00 0.00 0.00 75 1006.7